Weather Roundup
Issued by NWS Chicago, IL

Home | Current Version | Previous Version | Graphics & Text | Print | Product List | Glossary On
Versions: 1 2 3 4 5 6 7 8 9 10 11 12 13 14 15 16 17 18 19 20 21 22 23 24 25 26 27 28 29 30 31 32 33 34 35 36 37 38 39 40 41 42 43 44 45 46 47 48 49 50
000
NZUS59 KLOT 280410
HRRLOT

CHICAGO AREA WEATHER ROUNDUP
NATIONAL WEATHER SERVICE CHICAGO/ROMEOVILLE IL
1000 PM CST SAT DEC 27 2014

NOTE: "FAIR" INDICATES FEW OR NO CLOUDS BELOW 12,000 FEET WITH NO
SIGNIFICANT WEATHER AND/OR OBSTRUCTIONS TO VISIBILITY.

* THESE STATIONS ARE NOT UNDER NWS QUALITY CONTROL. THEY ALSO MAY NOT
  REPORT WEATHER SUCH AS PRECIPITATION OR FOG.

ILZ005-006-012>014-019>023-280500-
NORTHEAST ILLINOIS

CITY           SKY/WX    TMP DP  RH WIND       PRES   REMARKS
OHARE          CLOUDY    32  25  75 NW16      30.11R WCI  21
MIDWAY         MOCLDY    34  26  72 NW13      30.11R WCI  25
AURORA         PTCLDY    29  25  85 W8        30.13R WCI  21
LANSING*       CLOUDY    33  28  80 W8        30.11S WCI  26
JOLIET*        MOCLDY    30  26  84 W6        30.13S WCI  24
WAUKEGAN       CLOUDY    32  24  72 W8        30.09R WCI  25
DUPAGE AIRPORT PTCLDY    30  24  78 W9        30.11S WCI  22
WHEELING       CLOUDY    33  25  72 W12       30.12R WCI  24
KANKAKEE*      MOCLDY    32  28  86 W10       30.14S WCI  24
MORRIS*        PTCLDY    29  27  94 W9        30.13S WCI  20
LEWIS AIRPORT* PTCLDY    30  26  83 W8        30.12S WCI  23
NORTHERLY IS     N/A     35  26  70 W8          N/A  WCI  29
$$

WIZ051-052-058>065-066-070>072-280500-
SOUTHEAST WISCONSIN

CITY           SKY/WX    TMP DP  RH WIND       PRES   REMARKS
MILWAUKEE      CLOUDY    33  24  69 W13       30.08R WCI  24
KENOSHA*       CLOUDY    32  26  78 W10       30.09R WCI  24
RACINE*        CLOUDY    33  25  72 W8        30.10R WCI  26
BURLINGTON     CLOUDY    30  23  77 W7        30.10R WCI  23
WAUKESHA       CLOUDY    28  23  80 W10       30.10R WCI  19
WEST BEND      CLOUDY    30  23  74 W12       30.07R WCI  21
$$

INZ001>003-010>013-019-020-280500-
NORTHWEST INDIANA

CITY           SKY/WX    TMP DP  RH WIND       PRES   REMARKS
GARY*          CLOUDY    36  23  59 NW12      30.11R
MICHIGAN CITY* NOT AVBL
RENSSELAER*    NOT AVBL
VALPARAISO     CLOUDY    33  27  78 W9        30.10S WCI  25
$$

LMZ740>746-280500-
SOUTHERN LAKE MICHIGAN

STATION/POSITION TIME  SKY/WX   TEMP WIND        PRES    VSBY
                                AIR  DIR/SP/G
                 (UTC)          (F)  (DEG/KT/KT) (MB)    (MI)
HARRISON CRIB    0400            34  290/ 15/ 20   N/A
BURNHAM HARBOR   0400            34  290/ 12/ 13   N/A
CALUMET HARBOR   0400            34  300/  8/ 12 1018.2R
BURNS HARBOR     NOT AVBL
MICHIGAN CITY    0400            35  270/ 17/ 20   N/A
$$

ABBREVIATIONS USED IN REMARKS
   TC - TEMPERATURE IN CELSIUS
  WCI - WIND CHILL INDEX
   HX - HEAT INDEX
  VSB - VISIBILITY
$$



USA.gov is the U.S. government's official web portal to all federal, state and local government web resources and services.